Tracking 29892 objects as of 21-Nov-2024
HD Live streaming from Space Station
objects crossing your sky now

DELTA 1 DEB

Track DELTA 1 DEB now!
10-day predictions


NORAD ID: 10178
Int'l Code: 1977-065G
Perigee: 927.9 km
Apogee: 2,375.1 km
Inclination: 28.7 °
Period: 119.2 minutes
Semi major axis: 8022 km
RCS: 0.0487 m2 (small)
Launch date: July 14, 1977
Source: United States (US)
Launch site: AIR FORCE EASTERN TEST RANGE (AFETR)

Note: This is SATELLITE DEBRIS
Your satellite tracking list
Your tracking list is empty




NASA's NSSDC Master Catalog

Two Line Element Set (TLE):
1 10178U 77065G   24325.50854852  .00001999  00000-0  62175-2 0  9996
2 10178  28.7167  19.0154 0901927 215.5442 287.9328 12.08199459940944
Source of the keplerian elements: AFSPC